Location: Albany
(35.0170°S, 117.8920°E)
Time: 21:11:55
(UTC+08:00)

S-56A Canister/Altair - Pass Details

Date: 19 June 2021
Orbit: 632 x 2501 km, 38.9° (Epoch: 24 July)

Event Time Altitude Azimuth Distance (km) Brightness Sun altitude
Rises 22:01:44 0° 248° (WSW) 5,985 12.5 -59.9°
Reaches altitude 10° 22:06:02 10° 251° (WSW) 4,796 11.9 -60.8°
Enters shadow 22:11:11 26° 258° (WSW) 3,374 10.9 -61.8°
